Weather History for Grafton, ND

Change the Weather History Date:

Monday, April 8, 2013

  Actual Average Record
Temperature  
Mean Temperature 22 °F -  
Max Temperature 30 °F 47 °F 76 °F (1987)
Min Temperature 14 °F 29 °F 10 °F (1950)
Degree Days  
Heating Degree Days 43    
Moisture  
Dew Point 16 °F    
Average Humidity 81    
Maximum Humidity 100    
Minimum Humidity 63    
Precipitation  
Precipitation 0.00 in - - ()
Sea Level Pressure  
Sea Level Pressure 30.06 in    
Wind  
Wind Speed 18 mph (North)    
Max Wind Speed 29 mph    
Max Gust Speed 36 mph    
Visibility 10 miles    
Events      
Averages and records for this station are not official NWS values.
T = Trace of Precipitation, MM = Missing Value Source: NWS Daily Summary

Daily Weather History Graph

Daily Weather History Graph

Search for Another Location

Airport:

Trip Planner

Search our weather history database for the weather conditions in past years. The results will help you decide how hot, cold, wet, or windy it might be!

Date:

Astronomy

Apr. 08, 2013 Rise Set
Actual Time 6:52 AM CDT 8:10 PM CDT
Civil Twilight 6:20 AM CDT 8:43 PM CDT
Nautical Twilight 5:41 AM CDT 9:22 PM CDT
Astronomical Twilight 4:59 AM CDT 10:04 PM CDT
Moon 5:50 AM CDT (4/8) 6:42 PM CDT (4/8)
Length of Visible Light 14h 22m
Length of Day
13h 18m
Waning Crescent, 3% of the Moon is Illuminated
Apr 8
Waning Crescent
Apr 10
New
Apr 18
First Quarter
Apr 25
Full
May 2
Last Quarter

Hourly Weather History & Observations

Time (CDT) Temp. Windchill Dew Point Humidity Pressure Visibility Wind Dir Wind Speed Gust Speed Precip Events Conditions
12:15 AM 30.2 °F 21.3 °F 30.2 °F 100% 29.86 in 10.0 mi North 10.4 mph - N/A   Overcast
12:35 AM 28.4 °F 18.5 °F 28.4 °F 100% 29.86 in 10.0 mi North 11.5 mph - N/A   Overcast
12:55 AM 28.4 °F 18.5 °F 28.4 °F 100% 29.86 in 10.0 mi NNE 11.5 mph - N/A   Overcast
1:15 AM 28.4 °F 19.1 °F 28.4 °F 100% 29.86 in 10.0 mi NNE 10.4 mph - N/A   Overcast
1:35 AM 28.4 °F 19.7 °F 28.4 °F 100% 29.87 in 10.0 mi North 9.2 mph - N/A   Overcast
1:55 AM 28.4 °F 18.5 °F 28.4 °F 100% 29.88 in 10.0 mi North 11.5 mph - N/A   Overcast
2:15 AM 28.4 °F 18.0 °F 28.4 °F 100% 29.88 in 10.0 mi North 12.7 mph - N/A   Overcast
2:35 AM 28.4 °F 18.5 °F 26.6 °F 93% 29.88 in 10.0 mi North 11.5 mph - N/A   Mostly Cloudy
2:55 AM 26.6 °F 14.7 °F 26.6 °F 100% 29.88 in 10.0 mi North 15.0 mph - N/A   Overcast
3:15 AM 26.6 °F 13.8 °F 24.8 °F 93% 29.88 in 10.0 mi North 17.3 mph 23.0 mph N/A   Overcast
3:35 AM 24.8 °F 12.4 °F 24.8 °F 100% 29.89 in 10.0 mi North 15.0 mph 20.7 mph N/A   Overcast
3:55 AM 24.8 °F 11.1 °F 23.0 °F 93% 29.89 in 10.0 mi North 18.4 mph 21.9 mph N/A   Overcast
4:15 AM 24.8 °F 11.5 °F 23.0 °F 93% 29.90 in 10.0 mi North 17.3 mph 21.9 mph N/A   Overcast
4:35 AM 24.8 °F 11.1 °F 23.0 °F 93% 29.90 in 10.0 mi North 18.4 mph 21.9 mph N/A   Overcast
4:55 AM 23.0 °F 7.6 °F 21.2 °F 93% 29.90 in 10.0 mi North 21.9 mph 26.5 mph N/A   Overcast
5:15 AM 23.0 °F 7.6 °F 19.4 °F 86% 29.90 in 10.0 mi North 21.9 mph 26.5 mph N/A   Overcast
5:35 AM 23.0 °F 7.6 °F 19.4 °F 86% 29.91 in 10.0 mi North 21.9 mph 28.8 mph N/A   Overcast
5:55 AM 21.2 °F 5.2 °F 15.8 °F 80% 29.92 in 10.0 mi North 21.9 mph 31.1 mph N/A   Overcast
6:15 AM 19.4 °F 2.5 °F 14.0 °F 80% 29.93 in 10.0 mi North 23.0 mph 32.2 mph N/A   Overcast
6:35 AM 19.4 °F 2.8 °F 14.0 °F 80% 29.94 in 10.0 mi North 21.9 mph 27.6 mph N/A   Overcast
6:55 AM 19.4 °F 2.8 °F 14.0 °F 80% 29.95 in 10.0 mi North 21.9 mph 26.5 mph N/A   Overcast
7:15 AM 19.4 °F 2.8 °F 15.8 °F 86% 29.96 in 10.0 mi North 21.9 mph 27.6 mph N/A   Overcast
7:35 AM 19.4 °F 3.6 °F 14.0 °F 80% 29.96 in 10.0 mi North 19.6 mph 29.9 mph N/A   Overcast
7:55 AM 19.4 °F 2.5 °F 14.0 °F 80% 29.97 in 10.0 mi North 23.0 mph 27.6 mph N/A   Overcast
8:15 AM 19.4 °F 2.5 °F 14.0 °F 80% 29.97 in 10.0 mi North 23.0 mph 26.5 mph N/A   Overcast
8:35 AM 19.4 °F 2.5 °F 14.0 °F 80% 29.97 in 10.0 mi North 23.0 mph 28.8 mph N/A   Overcast
8:55 AM 19.4 °F 4.1 °F 14.0 °F 80% 29.98 in 10.0 mi North 18.4 mph 24.2 mph N/A   Overcast
9:15 AM 19.4 °F 2.1 °F 14.0 °F 80% 29.98 in 10.0 mi North 24.2 mph 27.6 mph N/A   Overcast
9:35 AM 19.4 °F 2.1 °F 14.0 °F 80% 29.98 in 10.0 mi North 24.2 mph 29.9 mph N/A   Overcast
9:55 AM 19.4 °F 2.5 °F 14.0 °F 80% 29.99 in 10.0 mi North 23.0 mph 29.9 mph N/A   Mostly Cloudy
10:15 AM 21.2 °F 4.9 °F 15.8 °F 80% 29.99 in 10.0 mi North 23.0 mph 32.2 mph N/A   Mostly Cloudy
10:35 AM 21.2 °F 4.5 °F 15.8 °F 80% 30.00 in 10.0 mi North 24.2 mph 31.1 mph N/A   Mostly Cloudy
10:55 AM 21.2 °F 4.5 °F 15.8 °F 80% 30.01 in 10.0 mi North 24.2 mph 31.1 mph N/A   Partly Cloudy
11:15 AM 21.2 °F 4.2 °F 15.8 °F 80% 30.02 in 10.0 mi North 25.3 mph 32.2 mph N/A   Unknown
11:35 AM 21.2 °F 4.9 °F 15.8 °F 80% 30.03 in 10.0 mi North 23.0 mph 29.9 mph N/A   Scattered Clouds
11:55 AM 21.2 °F 4.9 °F 15.8 °F 80% 30.04 in 10.0 mi North 23.0 mph 31.1 mph N/A   Scattered Clouds
12:15 PM 21.2 °F 4.9 °F 15.8 °F 80% 30.05 in 10.0 mi North 23.0 mph 31.1 mph N/A   Partly Cloudy
12:35 PM 21.2 °F 4.9 °F 15.8 °F 80% 30.06 in 10.0 mi North 23.0 mph 31.1 mph N/A   Clear
12:55 PM 23.0 °F 6.6 °F 15.8 °F 74% 30.07 in 10.0 mi North 25.3 mph 31.1 mph N/A   Partly Cloudy
1:15 PM 23.0 °F 7.2 °F 15.8 °F 74% 30.08 in 10.0 mi North 23.0 mph 32.2 mph N/A   Partly Cloudy
1:35 PM 23.0 °F 7.2 °F 15.8 °F 74% 30.09 in 10.0 mi North 23.0 mph 31.1 mph N/A   Scattered Clouds
1:55 PM 23.0 °F 7.6 °F 17.6 °F 80% 30.10 in 10.0 mi North 21.9 mph 28.8 mph N/A   Mostly Cloudy
2:15 PM 23.0 °F 6.6 °F 15.8 °F 74% 30.11 in 10.0 mi North 25.3 mph 32.2 mph N/A   Mostly Cloudy
2:35 PM 23.0 °F 7.6 °F 17.6 °F 80% 30.11 in 10.0 mi North 21.9 mph 29.9 mph N/A   Mostly Cloudy
2:55 PM 23.0 °F 7.6 °F 15.8 °F 74% 30.12 in 10.0 mi North 21.9 mph 34.5 mph N/A   Mostly Cloudy
3:15 PM 21.2 °F 3.5 °F 15.8 °F 80% 30.13 in 10.0 mi North 27.6 mph 34.5 mph N/A   Scattered Clouds
3:35 PM 21.2 °F 4.9 °F 15.8 °F 80% 30.13 in 10.0 mi North 23.0 mph 28.8 mph N/A   Scattered Clouds
3:55 PM 21.2 °F 4.2 °F 15.8 °F 80% 30.13 in 10.0 mi North 25.3 mph 32.2 mph N/A   Scattered Clouds
4:15 PM 19.4 °F 1.8 °F 15.8 °F 86% 30.14 in 10.0 mi NNW 25.3 mph 35.7 mph N/A   Partly Cloudy
4:35 PM 19.4 °F 0.8 °F 14.0 °F 80% 30.15 in 10.0 mi North 28.8 mph 33.4 mph N/A   Partly Cloudy
4:55 PM 19.4 °F 1.8 °F 14.0 °F 80% 30.16 in 10.0 mi NNW 25.3 mph 33.4 mph N/A   Clear
5:15 PM 19.4 °F 2.5 °F 14.0 °F 80% 30.17 in 10.0 mi North 23.0 mph 32.2 mph N/A   Clear
5:35 PM 19.4 °F 1.8 °F 14.0 °F 80% 30.17 in 10.0 mi North 25.3 mph 31.1 mph N/A   Clear
5:55 PM 19.4 °F 1.4 °F 12.2 °F 74% 30.19 in 10.0 mi North 26.5 mph 32.2 mph N/A   Clear
6:15 PM 19.4 °F 2.5 °F 10.4 °F 68% 30.20 in 10.0 mi NNW 23.0 mph 29.9 mph N/A   Scattered Clouds
6:35 PM 19.4 °F 1.8 °F 10.4 °F 68% 30.20 in 10.0 mi North 25.3 mph 32.2 mph N/A   Partly Cloudy
6:55 PM 19.4 °F 2.1 °F 8.6 °F 63% 30.21 in 10.0 mi North 24.2 mph 34.5 mph N/A   Partly Cloudy
7:15 PM 19.4 °F 2.1 °F 8.6 °F 63% 30.21 in 10.0 mi North 24.2 mph 31.1 mph N/A   Clear
7:35 PM 19.4 °F 2.1 °F 8.6 °F 63% 30.22 in 10.0 mi North 24.2 mph 29.9 mph N/A   Clear
7:55 PM 17.6 °F -0.6 °F 8.6 °F 68% 30.24 in 10.0 mi North 25.3 mph 31.1 mph N/A   Clear
8:15 PM 17.6 °F 1.3 °F 8.6 °F 68% 30.25 in 10.0 mi NNW 19.6 mph 26.5 mph N/A   Clear
8:35 PM 17.6 °F 0.5 °F 8.6 °F 68% 30.26 in 10.0 mi NNW 21.9 mph 26.5 mph N/A   Clear
8:55 PM 17.6 °F 1.7 °F 8.6 °F 68% 30.26 in 10.0 mi NNW 18.4 mph 25.3 mph N/A   Clear
9:15 PM 15.8 °F -0.6 °F 8.6 °F 73% 30.27 in 10.0 mi NNW 18.4 mph 23.0 mph N/A   Clear
9:35 PM 15.8 °F -1.1 °F 8.6 °F 73% 30.27 in 10.0 mi NNW 19.6 mph 26.5 mph N/A   Clear
9:55 PM 15.8 °F -0.2 °F 8.6 °F 73% 30.29 in 10.0 mi North 17.3 mph 23.0 mph N/A   Clear
10:15 PM 15.8 °F -1.1 °F 8.6 °F 73% 30.29 in 10.0 mi NNW 19.6 mph - N/A   Clear
10:35 PM 15.8 °F 0.3 °F 6.8 °F 68% 30.30 in 10.0 mi NNW 16.1 mph 23.0 mph N/A   Clear
10:55 PM 14.0 °F -3.0 °F 6.8 °F 73% 30.31 in 10.0 mi North 18.4 mph 24.2 mph N/A   Clear
11:15 PM 14.0 °F -2.0 °F 6.8 °F 73% 30.31 in 10.0 mi NNW 16.1 mph - N/A   Clear
11:35 PM 14.0 °F -0.2 °F 6.8 °F 73% 30.32 in 10.0 mi NNW 12.7 mph 20.7 mph N/A   Clear
11:55 PM 14.0 °F -0.2 °F 6.8 °F 73% 30.34 in 10.0 mi NNW 12.7 mph - N/A   Clear